Wind_Speed
20 21 21 21 22 22 21 21 22 22 22 23 23 19 19 21 18 7 5 4 1 10 3 2 2 1 4 2 3 2 1 2 3 2 1 5 3 3 3 11 3 2 6 12 25
21 21 22 22 22 22 22 22 22 22 22 22 23 18 18 20 14 5 2 9 10 9 4 1 3 2 1 1 1 2 1 3 4 4 1 8 5 7 5 10 3 10 13 26 25
21 22 22 23 23 23 23 23 23 22 22 21 21 16 16 16 4 2 5 4 12 15 6 2 1 2 2 1 1 1 2 3 3 4 8 9 6 4 8 8 8 13 20 20 23
21 22 22 23 24 24 24 24 24 23 22 20 18 14 13 7 3 4 5 9 5 12 8 4 2 3 0 5 2 4 4 4 1 6 6 8 8 4 7 2 5 18 22 21 18
22 23 23 24 25 25 24 24 25 24 22 19 14 9 5 2 6 4 4 2 5 10 6 4 2 1 2 5 5 2 8 4 5 9 8 9 5 1 6 7 15 19 19 19 17
22 24 23 24 26 26 25 25 25 25 23 16 7 3 1 4 2 2 3 1 6 6 5 5 3 2 1 3 3 3 5 4 5 6 5 4 3 1 4 11 16 19 19 18 18
23 25 24 24 26 26 26 26 26 25 18 6 3 2 2 12 2 6 7 1 3 5 4 4 4 4 3 1 4 3 1 5 6 2 2 5 2 5 11 14 15 15 17 16 15
25 26 26 26 26 26 26 27 24 14 5 4 4 3 6 4 9 8 7 3 6 6 2 3 2 2 1 1 2 2 3 4 2 3 3 1 6 5 13 16 14 13 14 15 17
25 27 27 26 26 27 27 22 9 3 5 5 3 1 7 8 2 4 3 3 6 3 2 4 2 2 2 2 1 6 3 6 5 6 2 4 5 2 9 14 14 13 14 14 14
25 27 28 25 26 28 19 6 3 4 4 3 1 3 4 1 6 7 3 5 3 5 4 1 3 3 2 3 3 2 2 3 6 1 9 8 15 4 10 15 16 15 14 14 15
26 28 27 25 28 21 16 0 2 2 1 4 0 3 3 10 2 1 2 5 3 5 4 3 6 11 11 4 4 6 2 4 6 0 5 13 17 7 13 14 15 16 16 16 16
25 26 27 24 26 9 7 3 6 2 7 5 9 10 9 3 3 1 3 4 2 5 3 3 11 5 5 5 6 4 2 3 4 8 3 4 13 4 12 16 18 17 18 18 16
24 25 27 25 13 9 5 9 6 3 3 4 4 3 2 9 4 3 5 4 3 6 5 7 2 7 6 7 7 4 7 4 4 6 6 4 5 2 2 10 13 15 16 17 18
22 24 27 26 2 13 1 1 18 8 2 1 1 1 4 3 3 2 3 3 2 8 8 5 3 6 7 8 8 12 3 4 5 4 4 3 5 6 2 7 12 16 18 18 19
23 24 25 20 12 4 1 14 3 3 2 5 3 3 4 3 3 2 1 2 7 6 5 5 6 9 7 5 7 6 2 4 3 3 3 4 4 3 3 9 8 17 19 20 17
23 25 24 8 9 6 6 10 3 2 2 3 3 2 4 1 2 3 3 4 3 5 1 3 2 3 8 6 9 5 3 1 1 1 6 2 3 4 4 6 7 4 17 19 17
27 24 18 11 2 4 13 2 1 2 2 4 3 2 2 5 3 3 8 6 4 4 5 2 7 3 3 5 3 4 6 6 7 5 6 2 4 10 8 10 11 13 7 17 17
28 20 8 9 2 3 3 2 2 1 2 2 2 1 4 6 3 3 7 9 3 3 2 3 4 9 8 11 6 9 10 7 9 8 5 2 4 6 6 6 8 9 9 8 14
21 7 3 5 5 8 2 2 1 2 3 7 4 2 2 2 2 3 7 8 9 13 7 4 3 2 7 5 11 6 7 2 3 1 3 2 5 12 9 13 9 11 8 9 14
11 4 7 6 8 4 1 1 2 3 3 2 3 2 3 2 3 3 5 3 4 13 8 5 3 1 1 5 4 5 10 5 2 5 7 4 4 9 9 14 9 10 12 10 10
3 2 9 11 3 0 1 2 3 5 4 2 1 2 1 2 1 2 2 2 3 3 7 7 4 2 2 7 10 4 4 1 1 2 7 9 7 7 13 14 10 9 7 8 7
4 2 5 7 1 1 2 2 1 3 1 3 2 2 2 2 1 3 2 2 0 7 8 7 2 7 11 1 2 1 5 8 5 5 1 4 10 4 12 13 7 10 8 2 7
3 1 3 3 2 2 1 2 3 2 2 1 2 3 1 2 1 2 2 2 3 6 6 9 4 3 3 4 2 6 5 5 1 1 7 9 9 3 10 14 5 9 9 4 8
1 2 2 2 1 1 2 2 4 2 3 2 3 1 1 2 2 0 1 1 1 1 1 6 3 4 6 3 1 6 7 8 9 4 3 8 14 11 11 14 12 10 8 5 6
2 2 2 2 2 2 2 2 3 3 1 2 2 5 4 1 1 2 2 3 1 3 2 4 2 3 6 8 7 8 3 8 12 4 6 4 7 12 9 9 12 10 7 7 8
2 2 1 1 1 3 1 2 1 3 2 2 4 8 2 2 2 2 3 1 1 1 1 1 2 2 2 4 6 7 7 8 12 6 10 9 11 10 12 10 11 8 10 10 9
2 1 2 1 1 3 4 3 2 4 2 3 6 4 2 2 9 11 9 8 5 3 1 2 3 2 3 3 2 6 13 11 6 6 7 7 11 7 11 10 10 6 9 7 7
Wind_Direction
2 2 359 358 357 355 351 348 345 343 342 342 339 334 330 328 330 321 257 244 191 163 114 42 306 149 174 224 204 170 51 263 265 220 115 142 131 79 98 138 116 31 150 141 149
358 355 352 350 350 348 347 343 341 338 337 338 337 334 331 331 329 250 268 247 212 211 177 191 319 337 265 62 163 247 203 268 201 198 171 152 148 141 143 152 88 82 104 134 147
352 351 348 345 343 343 342 339 337 334 333 334 333 332 330 333 288 106 34 343 229 219 210 210 180 286 322 336 21 180 274 309 229 168 142 149 137 138 142 197 197 156 146 149 156
347 345 342 341 340 338 336 335 332 330 330 330 328 327 329 343 198 150 24 25 144 177 179 183 198 158 0 340 355 287 312 294 69 129 125 157 138 151 187 5 191 154 157 156 168
344 342 337 337 338 335 331 331 329 327 323 323 317 325 346 335 253 203 14 36 114 149 180 167 97 115 16 325 331 282 324 9 86 113 109 135 152 128 193 76 129 143 158 168 173
344 342 336 334 336 333 328 326 326 321 315 312 292 317 114 258 235 244 314 112 186 178 173 163 154 186 131 297 336 7 37 46 64 95 111 127 112 263 103 129 136 154 169 176 181
342 340 336 333 332 330 325 323 322 316 310 286 233 151 217 248 244 287 307 275 176 171 166 180 156 193 162 312 344 311 303 91 63 50 103 120 173 210 147 149 152 170 177 186 190
339 338 336 333 334 330 324 322 317 317 319 166 174 146 252 269 307 297 264 219 191 187 206 180 161 112 266 309 30 25 18 15 51 188 95 223 273 221 161 155 165 179 188 194 201
339 340 336 334 335 330 325 323 327 52 98 129 120 205 268 312 318 3 197 166 149 141 167 109 105 86 154 86 51 21 40 2 8 212 136 221 284 132 179 180 174 188 195 204 208
338 338 336 335 336 330 333 346 70 91 104 92 105 272 263 10 312 319 188 157 120 112 119 69 69 176 125 219 250 99 13 331 330 312 221 238 256 191 179 193 192 190 202 208 214
337 337 335 336 336 336 346 329 285 165 169 243 179 287 297 328 321 81 133 124 92 61 174 40 204 213 222 193 137 138 146 321 310 288 235 244 267 244 195 199 200 197 203 212 217
335 337 336 336 336 357 -0 67 87 343 306 251 258 265 268 292 293 277 157 134 133 180 136 163 222 206 188 180 160 172 253 285 284 314 265 337 286 294 203 210 206 203 207 212 220
337 340 337 338 341 12 52 123 358 279 264 297 222 224 217 179 206 236 173 126 116 157 173 206 165 168 180 185 194 206 255 280 285 309 269 316 288 283 191 216 213 215 219 215 216
340 341 337 340 58 344 331 191 328 176 317 345 167 128 149 209 184 204 180 128 112 180 162 213 173 186 180 199 215 247 192 261 284 316 305 348 295 304 290 244 215 215 215 218 213
339 337 333 338 303 285 220 328 348 188 116 356 87 141 129 208 116 81 180 98 154 156 186 189 197 197 208 211 198 247 157 288 300 279 246 196 261 284 327 308 250 214 217 214 211
334 329 326 333 300 277 319 335 161 263 87 58 107 116 169 309 92 116 142 75 98 134 191 233 253 224 233 192 195 137 155 85 101 163 236 111 269 253 299 277 296 215 217 212 207
328 322 305 284 254 288 326 228 259 228 333 28 23 15 203 178 166 141 156 163 171 169 210 238 228 230 196 190 159 185 191 217 221 217 245 112 228 270 267 267 267 286 244 217 205
327 323 308 258 254 0 320 162 224 28 339 341 355 239 195 163 183 114 156 198 184 122 143 218 210 193 181 218 202 197 221 227 226 227 242 143 232 259 267 280 284 268 272 221 210
334 339 22 347 302 209 218 185 292 206 322 333 314 137 137 119 180 180 191 204 207 189 209 180 251 206 212 169 199 163 207 273 188 101 264 249 251 278 271 272 253 254 232 219 215
336 345 7 346 135 154 149 205 242 229 314 282 31 10 118 65 146 202 178 168 218 201 217 191 265 211 103 170 73 233 142 173 224 202 238 207 256 256 280 283 296 255 246 232 218
0 106 5 107 0 144 180 217 269 257 245 286 0 347 17 74 143 186 146 169 221 146 198 164 235 159 208 202 188 161 197 85 172 249 252 257 250 235 249 267 290 279 266 265 227
337 97 349 340 115 20 167 206 267 292 282 268 262 258 282 327 193 198 173 251 180 157 170 187 196 235 249 151 5 294 237 194 230 204 229 286 264 246 254 274 278 280 292 248 210
40 348 19 335 129 122 245 282 268 261 268 276 268 241 157 288 222 232 236 111 114 170 168 174 204 224 224 168 129 234 207 214 167 203 209 251 271 221 265 274 254 262 272 261 176
312 129 93 60 21 57 19 21 333 246 258 263 286 306 313 246 228 288 275 143 10 126 77 162 150 236 262 240 214 192 197 198 215 194 211 238 269 267 264 273 286 251 244 260 187
355 68 0 165 164 223 262 313 325 0 239 333 141 -0 269 283 299 223 255 308 130 103 116 210 231 219 273 253 238 250 209 191 228 196 227 305 226 263 267 283 288 276 215 209 194
21 7 33 109 279 198 180 186 337 336 279 61 19 352 97 86 5 282 349 230 312 0 112 263 200 213 273 344 241 235 204 201 223 229 252 266 275 273 281 280 271 240 207 210 192
21 57 288 105 180 195 172 171 174 350 213 264 339 324 257 343 308 275 256 283 297 292 348 297 202 220 269 344 268 238 218 205 197 218 242 240 274 292 283 282 298 248 224 210 164
Height
810 807 805 802 800 797 794 791 787 784 780 776 773 770 767 764 763 762 760 758 757 758 759 757 756 758 759 757 756 757 775 784 776 778 772 766 769 767 767 772 774 775 777 780 792
811 807 804 801 798 795 792 789 786 783 779 776 772 769 765 762 760 759 756 754 756 757 759 758 755 754 755 756 755 761 776 772 759 759 765 765 765 768 774 776 781 782 782 786 793
810 806 803 800 797 794 791 787 784 781 778 775 771 768 765 762 759 755 754 752 752 755 758 758 757 755 757 755 757 760 771 758 756 753 755 764 767 765 772 780 773 780 785 789 793
809 805 802 798 795 792 788 785 782 778 776 773 770 768 765 764 773 754 753 752 749 752 756 756 756 760 763 764 757 768 754 754 755 755 758 766 763 768 766 768 763 773 780 786 792
807 803 799 796 793 789 786 782 779 776 773 771 769 768 766 766 758 754 754 753 752 752 753 753 756 759 766 762 758 765 759 754 755 756 757 760 767 768 768 767 768 776 783 786 790
805 801 797 794 790 786 782 779 776 772 769 768 767 767 768 772 752 752 752 753 752 753 752 752 753 753 760 762 763 760 759 760 759 761 760 765 770 769 771 771 775 779 782 784 788
803 799 795 792 788 783 779 775 772 768 765 764 765 766 767 756 750 750 751 751 751 751 751 751 752 754 755 761 755 757 766 760 763 764 765 759 775 772 767 771 777 780 782 784 786
801 797 793 789 785 780 775 771 767 764 763 763 765 766 760 749 749 748 749 749 749 749 750 750 751 752 755 754 760 768 767 777 766 763 765 765 777 766 765 769 777 781 783 784 786
799 794 790 786 782 777 771 766 763 763 763 764 766 766 757 748 747 747 747 747 748 749 750 751 751 757 757 767 775 776 790 785 775 763 766 769 774 768 766 768 775 778 780 781 784
797 792 787 783 778 773 768 764 764 764 765 765 766 769 750 750 747 746 746 747 747 749 751 752 757 763 767 771 798 796 790 783 785 767 768 771 767 766 766 767 769 773 776 778 779
794 789 784 780 776 770 766 765 767 766 764 758 757 758 752 750 747 746 745 746 747 751 764 765 768 775 766 767 772 780 785 789 774 763 770 766 761 759 763 765 767 768 773 773 773
792 788 782 778 773 770 767 768 773 777 768 756 756 757 753 753 753 745 745 750 756 768 767 771 776 765 764 767 771 777 783 782 774 763 769 768 762 755 757 760 760 762 765 767 768
789 785 780 775 771 770 770 772 772 773 771 755 752 751 748 750 750 747 745 750 762 772 772 777 771 767 768 773 776 777 778 780 785 772 760 768 766 762 758 758 758 758 756 759 761
788 784 779 773 774 772 771 772 770 769 770 757 752 747 747 746 750 744 745 749 763 771 774 773 765 769 772 774 769 779 769 772 777 782 793 770 791 760 762 759 758 753 751 751 755
786 783 779 776 775 774 772 770 767 769 782 750 751 745 746 749 745 748 746 746 762 769 771 772 771 772 774 769 765 771 764 770 773 778 782 780 786 759 759 747 741 747 742 744 747
783 780 776 775 773 771 769 768 768 776 784 757 749 752 752 748 747 746 747 746 753 765 768 766 760 762 759 758 759 758 769 774 778 779 793 782 785 765 754 744 733 735 735 736 741
779 775 774 774 770 768 768 767 778 783 759 765 759 752 754 754 752 749 755 760 766 781 780 772 765 757 755 765 763 765 771 792 799 796 795 786 786 759 737 730 733 728 729 731 733
773 769 767 767 767 768 768 768 791 773 768 756 756 756 757 752 754 756 759 765 765 766 780 780 783 764 754 759 765 767 766 784 812 803 786 788 785 757 730 726 725 724 723 725 730
768 766 766 766 765 768 768 779 777 774 765 763 755 760 758 752 752 756 757 758 751 755 774 781 778 754 753 747 751 771 777 760 780 797 794 775 764 741 727 724 723 719 722 722 723
768 767 768 765 765 769 768 784 775 768 763 762 768 761 762 758 758 760 763 752 753 750 742 761 777 757 750 748 753 754 753 776 777 802 807 783 778 760 738 725 716 717 717 715 719
769 765 771 769 769 766 773 776 773 762 763 763 764 763 760 759 756 757 756 748 744 750 750 756 761 763 755 756 755 762 762 768 764 772 782 789 771 731 729 716 720 713 713 715 718
771 767 772 771 770 781 773 774 768 761 757 759 758 759 759 756 755 755 753 747 740 744 756 751 756 768 758 748 749 748 746 749 765 779 778 773 763 721 720 714 718 714 711 712 716
777 778 773 773 773 775 772 769 765 762 760 759 758 756 755 756 761 752 748 739 739 743 748 750 759 771 762 756 754 752 747 745 751 756 772 772 758 720 719 712 715 717 712 714 716
781 772 774 774 778 774 773 771 768 758 760 757 757 752 756 757 753 755 748 739 738 739 747 742 755 756 763 752 743 752 749 749 745 758 757 756 741 724 715 713 705 709 711 712 714
783 781 783 775 776 774 773 772 769 767 758 757 758 758 761 762 756 757 749 741 738 745 744 739 752 760 751 750 748 742 742 750 751 741 752 738 747 722 712 709 702 700 707 711 714
785 786 783 781 781 777 779 773 769 767 764 761 761 758 758 761 764 763 756 750 747 739 743 747 752 756 751 748 747 746 738 737 741 741 743 739 735 705 705 706 707 707 706 707 712
790 790 788 785 778 774 771 772 768 767 760 758 760 760 759 758 756 752 751 750 749 748 747 749 746 752 755 753 748 752 730 729 730 727 724 739 716 705 706 704 704 707 707 707 713